Regional Weather Roundup
Issued by NWS

Home | Current Version | Previous Version | Text Only | Print | Product List | Glossary On
Versions: 1 2 3 4 5 6 7 8 9 10 11 12 13 14 15 16 17 18 19 20 21 22 23 24 25 26 27 28 29 30 31 32 33 34 35 36 37 38 39 40 41 42 43 44 45 46 47 48 49 50
000
ASUS46 KPQR 260410
RWROR

OREGON REGIONAL WEATHER ROUNDUP
NATIONAL WEATHER SERVICE PORTLAND OR
900 PM PDT WED APR 25 2018

NOTE: "FAIR" INDICATES FEW OR NO CLOUDS BELOW 12,000 FEET WITH
NO SIGNIFICANT WEATHER AND/OR OBSTRUCTIONS TO VISIBILITY.

ORZ001>013-260500-
NORTHWEST OREGON


CITY           SKY/WX    TMP DP  RH WIND       PRES   REMARKS
ASTORIA        CLEAR     52  48  86 CALM      30.00S
TILLAMOOK      CLOUDY    50  50 100 CALM      30.06R
NEWPORT        CLOUDY    48  46  93 CALM      30.08R
PORTLAND       CLEAR     71  44  37 CALM      29.97R
VANCOUVER WA   CLEAR     76  43  30 NW5       29.95R
SCAPPOOSE      CLEAR     71  42  35 NW7       29.96R
HILLSBORO      CLEAR     67  45  45 N5        29.96R
AURORA         CLEAR     72  39  30 N3        29.96R
MCMINNVILLE    CLEAR     67  46  47 CALM      29.95R
SALEM          CLEAR     69  48  47 CALM      29.94R
CORVALLIS      CLEAR     63  52  67 NW12      29.96R
EUGENE         CLEAR     65  56  72 W5        29.96R
$$

ORZ021-028-260500-
SOUTHWEST OREGON


CITY           SKY/WX    TMP DP  RH WIND       PRES   REMARKS
NORTH BEND     CLOUDY    51  48  89 CALM      30.07R
BROOKINGS      CLOUDY    49  48  97 S6        30.06S
ROSEBURG       CLEAR     74  46  36 NE3       29.95R
SEXTON SUMMIT  CLEAR     62  45  53 N9        30.06R
GRANTS PASS    FAIR      73  48  40 CALM      29.96R
MEDFORD        CLEAR     76  40  27 CALM      29.92R
$$

ORZ014>016-041-260500-
COLUMBIA GORGE


CITY           SKY/WX    TMP DP  RH WIND       PRES   REMARKS
TROUTDALE      CLEAR     72  44  36 E5        29.96R
HOOD RIVER     CLEAR     70  39  32 CALM      30.05R
THE DALLES     CLEAR     66  43  43 SE5       30.04R
$$

ORZ029>031-041-044-049-050-061>064-502-503-505>511-260500-
EASTERN OREGON


CITY           SKY/WX    TMP DP  RH WIND       PRES   REMARKS
MADRAS         CLEAR     61  37  41 N13       30.09R
REDMOND        CLEAR     66  40  38 NW12      30.07R
BEND           CLEAR     66  37  34 NW8       30.10R
PRINEVILLE     CLEAR     66  36  32 N8        30.08R
KLAMATH FALLS  CLEAR     57  38  48 E3        30.06S
LAKEVIEW       CLEAR     50  36  58 N5        30.12R
HERMISTON      PTCLDY    55  43  63 SE5       30.06R
PENDLETON      CLEAR     56  41  57 E6        30.09R
JOHN DAY       CLEAR     68  30  24 CALM      30.11R
MEACHAM        CLEAR     46  37  71 CALM      30.17R
LA GRANDE      CLEAR     59  37  44 W7        30.12R
BAKER CITY     CLEAR     56  39  53 W8        30.13R
BURNS          CLEAR     52  33  48 N6        30.11R
ROME             N/A     59  20  22 NE5       30.11R
ONTARIO        PTCLDY    59  35  40 CALM      30.08R
$$



USA.gov is the U.S. government's official web portal to all federal, state and local government web resources and services.